Location: Rounton
(54.4000°N, 1.3500°W)
Time: 18:55:08
(UTC+00:00)

Tiros 1 despin weight - All Passes

Search period start: 30 November 2021 00:00
Search period end: 10 December 2021 00:00
Orbit: 593 x 641 km, 48.2° (Epoch: 29 November)

Date Brightness Start Highest point End Pass type
(mag) Time Alt. Az. Time Alt. Az. Time Alt. Az.
30 Nov - 14:22:24 10° S 14:24:41 14° SE 14:26:57 10° ESE daylight
30 Nov - 16:01:24 10° SW 16:05:16 31° SSE 16:09:09 10° ESE daylight
30 Nov - 17:42:08 10° WSW 17:46:12 36° S 17:50:17 10° ESE visible
30 Nov - 19:23:33 10° WSW 19:27:01 23° SSW 19:30:31 10° SSE visible
01 Dec - 14:37:11 10° SSW 14:40:25 20° SSE 14:43:40 10° ESE daylight
01 Dec - 16:17:10 10° WSW 16:21:11 35° S 16:25:14 10° ESE daylight
01 Dec - 17:58:11 10° WSW 18:02:08 33° SSW 18:06:07 10° SE visible
01 Dec - 19:40:03 10° WSW 19:42:48 16° SSW 19:45:34 10° S visible
02 Dec - 13:14:56 10° SSE 13:15:47 10° SE 13:16:38 10° SE daylight
02 Dec - 14:52:32 10° SW 14:56:15 27° SSE 14:59:58 10° ESE daylight
02 Dec - 16:33:04 10° WSW 16:37:08 37° S 16:41:13 10° ESE visible
02 Dec - 18:14:18 10° WSW 18:18:02 27° SSW 18:21:45 10° SE visible
02 Dec - 19:57:42 10° SW 19:58:29 10° SW 19:59:17 10° SSW visible
03 Dec - 13:28:43 10° S 13:31:29 16° SSE 13:34:13 10° ESE daylight
03 Dec - 15:08:11 10° SW 15:12:08 33° SSE 15:16:06 10° ESE daylight
03 Dec - 16:49:03 10° WSW 16:53:05 35° S 16:57:07 10° ESE visible
03 Dec - 18:30:37 10° WSW 18:33:51 20° SSW 18:37:05 10° SSE visible
04 Dec - 13:43:46 10° SSW 13:47:15 23° SSE 13:50:43 10° ESE daylight
04 Dec - 15:24:01 10° WSW 15:28:04 36° S 15:32:08 10° ESE daylight
04 Dec - 17:05:08 10° WSW 17:09:00 30° SSW 17:12:52 10° SE visible
04 Dec - 18:47:20 10° WSW 18:49:35 14° SW 18:51:51 10° S visible
05 Dec - 12:20:35 10° S 12:22:33 13° SE 12:24:31 10° ESE daylight
05 Dec - 13:59:15 10° SW 14:03:06 29° SSE 14:06:56 10° ESE daylight
05 Dec - 15:39:58 10° WSW 15:44:01 37° S 15:48:05 10° ESE daylight
05 Dec - 17:21:19 10° WSW 17:24:52 24° SSW 17:28:25 10° SSE visible
06 Dec - 12:35:09 10° SSW 12:38:16 19° SSE 12:41:23 10° ESE daylight
06 Dec - 14:15:00 10° SW 14:19:01 35° S 14:23:01 10° ESE daylight
06 Dec - 15:55:58 10° WSW 15:59:57 34° S 16:03:56 10° SE daylight
06 Dec - 17:37:44 10° WSW 17:40:39 17° SSW 17:43:35 10° SSE visible
07 Dec - 12:50:25 10° SW 12:54:04 25° SSE 12:57:44 10° ESE daylight
07 Dec - 14:30:52 10° WSW 14:34:57 37° S 14:39:01 10° ESE daylight
07 Dec - 16:12:05 10° WSW 16:15:51 28° SSW 16:19:37 10° SE daylight
07 Dec - 17:54:53 10° WSW 17:56:21 11° SW 17:57:49 10° SSW visible
08 Dec - 11:26:45 10° S 11:29:19 15° SSE 11:31:53 10° ESE daylight
08 Dec - 13:06:01 10° SW 13:09:57 32° SSE 13:13:53 10° ESE daylight
08 Dec - 14:46:50 10° WSW 14:50:54 36° S 14:54:56 10° ESE daylight
08 Dec - 16:28:20 10° WSW 16:31:41 21° SSW 16:35:02 10° SSE visible
09 Dec - 11:41:41 10° SSW 11:45:04 22° SSE 11:48:27 10° ESE daylight
09 Dec - 13:21:48 10° WSW 13:25:52 36° S 13:29:55 10° ESE daylight
09 Dec - 15:02:53 10° WSW 15:06:49 32° SSW 15:10:44 10° SE daylight
09 Dec - 16:44:56 10° WSW 16:47:26 15° SSW 16:49:56 10° S visible
